Probability
68 68 58 61 71 81 84 84 87 87 90 90 87 87 87 74 65 55 52 42 35 26 32 26 32 35 32 26 32 35 26 23 26 16 13 13 16 16 26 32 29 32 42
55 55 52 58 65 84 87 87 87 87 87 87 87 87 77 74 68 61 48 32 19 16 10 16 19 19 19 19 29 26 19 19 10 10 10 3 6 32 3 26 39 19 35
48 48 48 52 61 74 77 65 84 87 81 84 77 84 81 81 74 55 61 35 26 19 16 16 10 16 13 10 13 19 10 13 16 10 6 0 0 3 6 3 10 19 32
35 35 42 52 52 61 65 74 84 81 77 71 68 68 55 45 55 61 52 39 29 23 23 23 13 10 6 10 6 10 6 6 3 6 3 3 3 0 0 0 3 6 6
23 35 42 55 45 39 61 68 77 71 65 61 55 52 55 52 45 42 29 26 29 29 26 19 13 10 6 6 6 6 6 6 6 6 0 3 6 0 0 0 0 0 0
19 29 32 52 52 42 45 58 77 65 52 52 52 45 45 42 35 26 23 16 16 13 10 16 10 6 3 3 3 3 0 3 3 3 3 0 0 0 0 0 0 0 0
13 26 29 42 45 48 45 55 71 58 45 42 35 32 26 26 29 16 13 10 6 6 6 0 0 0 0 0 0 0 3 3 3 3 3 0 0 0 0 0 0 0 0
10 13 29 48 55 45 55 52 55 42 35 32 26 16 13 13 6 3 3 3 3 0 0 0 0 0 0 0 0 0 0 0 3 0 0 0 0 0 0 0 0 0 0
10 6 26 42 42 45 45 39 42 29 26 16 10 13 10 6 3 6 6 3 6 3 0 0 0 0 0 0 0 0 0 0 0 0 0 0 0 0 0 0 0 0 0
0 0 19 26 32 35 35 29 29 19 10 10 3 3 3 10 3 3 0 3 3 0 0 0 0 0 0 0 3 0 0 0 3 0 3 0 0 3 0 0 0 0 0
0 3 13 13 16 10 10 13 13 10 6 3 3 3 3 3 6 6 0 3 3 3 0 0 0 0 0 3 3 0 3 0 3 3 3 3 3 0 0 0 0 0 0
3 3 13 6 6 6 10 6 6 3 3 3 3 0 6 6 6 0 3 3 3 3 0 0 0 0 0 0 0 0 0 3 3 0 0 3 0 3 0 0 0 0 0
6 10 6 6 3 3 0 0 3 3 3 0 0 0 6 3 3 3 3 3 3 0 0 0 3 3 0 0 0 0 0 0 0 0 0 0 0 0 0 0 0 0 0
13 6 6 6 0 0 0 0 0 0 0 0 0 0 6 6 6 3 0 0 0 0 0 3 3 0 0 0 3 3 0 0 0 0 0 0 0 0 0 0 0 0 0
13 10 10 13 6 0 3 0 0 0 0 0 0 0 0 3 0 3 0 0 0 0 0 0 0 0 0 0 0 0 0 0 0 0 0 0 0 0 0 0 0 0 0
10 6 13 16 16 6 3 3 3 0 0 0 0 0 0 0 3 6 3 0 0 0 3 0 3 0 0 0 0 0 0 0 0 0 0 0 0 0 0 0 0 0 0
3 10 16 19 23 13 6 10 3 3 0 0 0 0 3 3 3 0 0 3 3 6 6 3 3 3 0 0 0 0 0 0 0 0 0 0 0 0 0 0 0 0 0
0 0 6 16 10 10 10 13 3 3 0 3 3 3 3 3 6 6 6 6 6 6 3 6 3 3 0 0 0 0 0 0 0 0 0 0 0 0 0 0 0 0 0
6 6 3 0 6 10 10 10 6 3 0 0 3 3 3 3 6 6 10 10 16 10 10 3 3 3 3 0 0 0 0 0 0 0 0 0 0 0 0 0 0 0 0
6 6 0 3 10 13 13 13 13 10 6 3 3 3 6 10 10 10 16 16 23 6 3 0 3 3 3 0 0 0 0 0 0 0 0 0 0 0 0 0 0 0 0
10 6 6 13 23 19 16 13 10 10 6 3 6 6 10 16 13 13 19 23 6 6 6 3 0 0 0 0 0 0 0 0 0 0 0 0 0 0 0 0 0 0 0
3 6 32 32 26 26 35 35 32 26 16 6 6 10 23 10 0 26 42 35 13 0 0 0 0 0 0 0 0 0 0 0 0 0 0 0 0 0 0 0 0 0 0
23 16 26 55 48 39 45 48 61 39 23 23 26 29 23 23 26 23 23 19 6 0 0 0 0 0 0 0 0 0 0 0 0 0 0 0 0 0 0 0 0 0 0
23 29 23 23 48 45 48 58 55 48 42 39 35 35 32 23 26 26 3 3 6 0 0 0 0 0 0 0 0 0 0 0 0 0 0 0 0 0 0 0 0 0 0
32 48 61 55 58 61 48 48 45 48 45 39 32 29 10 3 29 19 16 3 3 0 0 0 0 0 0 0 0 0 0 0 0 0 0 0 3 0 0 0 0 0 0
35 39 48 35 35 35 48 52 61 48 48 29 19 3 3 3 3 3 3 0 0 0 0 0 0 0 0 0 0 0 0 0 0 0 0 0 0 0 0 0 0 0 0
Height
5861 5862 5863 5864 5865 5865 5865 5865 5864 5863 5861 5860 5859 5857 5856 5855 5854 5853 5851 5850 5849 5847 5846 5844 5843 5842 5841 5840 5839 5838 5838 5837 5837 5837 5837 5838 5838 5839 5840 5841 5843 5844 5845
5860 5861 5862 5863 5863 5863 5863 5863 5861 5860 5859 5857 5856 5855 5853 5851 5850 5849 5847 5846 5844 5842 5841 5840 5838 5836 5835 5834 5833 5832 5831 5831 5830 5830 5830 5831 5831 5831 5832 5833 5835 5836 5838
5859 5860 5860 5861 5861 5861 5861 5860 5859 5858 5856 5854 5853 5851 5850 5848 5847 5845 5843 5842 5840 5838 5836 5835 5833 5831 5829 5828 5827 5826 5825 5824 5823 5822 5823 5823 5823 5823 5824 5825 5826 5828 5830
5857 5858 5858 5859 5859 5859 5859 5858 5857 5855 5854 5852 5850 5848 5847 5845 5843 5841 5839 5837 5835 5834 5832 5830 5827 5825 5824 5822 5821 5819 5818 5817 5816 5815 5815 5815 5815 5815 5815 5816 5817 5819 5821
5855 5855 5856 5857 5857 5857 5856 5856 5854 5853 5851 5849 5847 5846 5843 5842 5840 5837 5835 5833 5831 5829 5827 5824 5822 5820 5818 5816 5814 5812 5811 5809 5808 5807 5806 5806 5806 5806 5806 5807 5808 5809 5811
5854 5854 5855 5855 5855 5854 5854 5853 5852 5850 5848 5846 5845 5843 5840 5838 5836 5833 5831 5829 5826 5824 5822 5819 5817 5814 5812 5809 5807 5805 5803 5801 5800 5798 5798 5797 5797 5797 5797 5798 5798 5799 5801
5852 5853 5854 5853 5853 5852 5851 5850 5849 5847 5845 5844 5842 5839 5837 5835 5832 5830 5827 5824 5821 5819 5816 5813 5810 5808 5805 5802 5799 5797 5795 5792 5791 5789 5788 5787 5787 5787 5787 5788 5789 5789 5791
5852 5852 5852 5851 5851 5850 5849 5847 5846 5844 5843 5841 5839 5836 5834 5831 5828 5826 5823 5820 5816 5813 5810 5806 5803 5800 5797 5794 5791 5788 5785 5783 5781 5779 5778 5777 5776 5776 5777 5777 5778 5779 5781
5851 5850 5850 5849 5849 5848 5846 5845 5843 5842 5840 5838 5836 5833 5830 5827 5824 5821 5818 5814 5811 5807 5803 5799 5796 5792 5788 5784 5781 5778 5775 5773 5770 5768 5767 5766 5765 5765 5765 5765 5766 5768 5769
5849 5849 5848 5847 5846 5845 5844 5842 5841 5839 5837 5835 5832 5830 5827 5824 5821 5817 5813 5809 5805 5800 5796 5792 5787 5783 5779 5774 5771 5767 5764 5761 5759 5757 5755 5754 5753 5753 5753 5753 5754 5755 5757
5849 5848 5847 5845 5844 5843 5842 5840 5839 5837 5834 5832 5829 5826 5823 5820 5817 5812 5808 5804 5799 5794 5789 5784 5779 5774 5769 5764 5760 5756 5753 5750 5747 5744 5743 5741 5740 5740 5740 5741 5742 5743 5744
5847 5846 5845 5844 5843 5841 5840 5838 5836 5834 5831 5829 5826 5823 5819 5816 5812 5807 5802 5797 5792 5786 5781 5775 5770 5765 5759 5754 5750 5745 5742 5738 5735 5733 5731 5729 5728 5728 5727 5728 5729 5730 5731
5846 5845 5843 5842 5840 5839 5837 5835 5833 5830 5828 5825 5822 5819 5815 5811 5806 5801 5796 5790 5784 5778 5772 5766 5761 5755 5750 5745 5740 5735 5731 5728 5725 5722 5720 5718 5716 5716 5715 5715 5716 5717 5719
5844 5842 5841 5840 5838 5836 5834 5831 5829 5826 5824 5821 5818 5814 5810 5805 5800 5795 5789 5783 5777 5771 5764 5758 5752 5746 5740 5735 5730 5725 5721 5717 5714 5711 5709 5706 5705 5704 5703 5703 5704 5705 5707
5841 5839 5838 5836 5834 5832 5830 5828 5825 5822 5819 5816 5813 5809 5804 5799 5794 5788 5782 5776 5769 5763 5756 5750 5743 5737 5731 5726 5721 5716 5711 5708 5704 5701 5698 5695 5693 5692 5691 5691 5691 5692 5694
5837 5836 5834 5832 5831 5828 5826 5824 5821 5818 5815 5811 5808 5803 5798 5793 5787 5781 5775 5768 5762 5755 5748 5741 5735 5728 5722 5716 5711 5706 5702 5698 5694 5690 5687 5685 5683 5681 5680 5679 5679 5680 5682
5833 5831 5830 5828 5826 5824 5822 5819 5816 5813 5810 5806 5802 5797 5792 5787 5781 5775 5768 5761 5754 5747 5740 5733 5726 5719 5713 5707 5702 5697 5692 5688 5684 5680 5677 5674 5672 5670 5669 5668 5667 5668 5669
5828 5827 5825 5823 5821 5819 5817 5814 5811 5807 5804 5800 5796 5791 5785 5780 5773 5767 5760 5753 5746 5739 5732 5724 5717 5711 5705 5699 5693 5688 5683 5678 5674 5670 5667 5664 5661 5659 5658 5657 5656 5656 5657
5824 5822 5820 5818 5816 5813 5811 5808 5805 5801 5797 5793 5789 5784 5778 5772 5766 5759 5752 5745 5738 5730 5723 5716 5709 5703 5696 5690 5684 5679 5674 5670 5665 5661 5657 5654 5651 5648 5646 5645 5645 5645 5645
5818 5816 5814 5812 5810 5807 5804 5801 5798 5794 5790 5786 5781 5776 5771 5765 5758 5751 5744 5737 5730 5722 5715 5708 5702 5695 5688 5682 5676 5671 5666 5662 5657 5652 5648 5645 5642 5639 5636 5634 5633 5633 5633
5811 5810 5808 5806 5804 5801 5798 5795 5791 5787 5783 5778 5773 5768 5763 5756 5750 5743 5736 5729 5722 5715 5708 5701 5694 5687 5681 5675 5669 5663 5658 5653 5648 5644 5639 5636 5632 5629 5626 5624 5623 5622 5621
5805 5803 5801 5799 5797 5794 5791 5788 5784 5780 5775 5770 5765 5760 5754 5748 5741 5734 5728 5721 5714 5707 5700 5693 5687 5680 5673 5667 5661 5656 5650 5645 5640 5635 5631 5627 5623 5620 5617 5614 5612 5611 5611
5798 5796 5794 5791 5789 5786 5783 5780 5776 5772 5767 5762 5757 5751 5745 5739 5733 5726 5720 5713 5706 5699 5692 5685 5679 5672 5666 5660 5654 5649 5643 5638 5632 5628 5623 5618 5614 5611 5608 5605 5603 5601 5601
5790 5788 5786 5783 5780 5778 5775 5771 5767 5763 5758 5753 5748 5742 5737 5731 5725 5718 5712 5705 5698 5691 5684 5677 5671 5665 5658 5652 5647 5641 5636 5631 5625 5620 5615 5610 5606 5602 5599 5596 5594 5592 5592
5782 5779 5777 5774 5771 5769 5766 5762 5758 5754 5749 5744 5738 5733 5727 5721 5716 5709 5703 5696 5689 5682 5676 5669 5663 5657 5652 5646 5640 5634 5629 5623 5618 5613 5608 5603 5599 5595 5591 5588 5586 5584 5584
5773 5770 5768 5765 5762 5759 5756 5752 5748 5744 5739 5734 5729 5723 5717 5711 5705 5699 5693 5687 5681 5674 5668 5661 5656 5650 5644 5639 5633 5628 5623 5617 5612 5606 5601 5597 5592 5588 5585 5582 5579 5578 5577
Wind_Speed
13 14 14 15 16 17 17 17 17 18 18 18 19 19 19 19 20 20 20 21 21 22 23 24 24 24 24 25 25 25 26 26 27 27 28 28 28 29 29 29 29 29 30
11 12 13 13 15 15 16 16 17 17 17 17 18 18 19 20 20 20 21 21 22 22 23 23 24 25 25 25 25 26 26 27 27 28 28 29 30 31 30 31 31 31 31
10 10 11 12 13 14 14 14 15 16 17 17 17 18 19 19 20 20 20 21 22 22 23 24 24 25 25 25 25 26 26 27 28 28 28 29 29 31 31 31 31 32 32
9 10 11 11 12 12 13 14 15 15 16 16 16 18 19 19 20 20 21 21 22 23 23 24 25 25 25 26 26 27 27 28 28 29 29 29 30 31 31 32 32 32 32
7 8 8 10 11 12 12 13 14 15 16 17 18 18 19 20 20 21 22 23 23 24 24 24 25 26 26 27 27 28 29 29 30 31 31 31 32 32 32 33 33 33 33
6 6 7 8 10 11 12 13 14 15 16 17 18 19 20 21 21 22 23 24 25 25 25 25 26 27 28 28 29 30 30 31 32 32 33 33 33 33 34 34 34 35 35
5 5 7 8 10 11 13 13 14 15 16 17 18 20 21 22 23 24 25 26 27 27 27 27 28 29 29 30 31 32 33 33 34 34 35 35 35 35 36 36 36 36 36
6 7 8 9 11 12 13 14 14 15 17 18 20 21 22 23 24 25 26 27 28 29 30 31 31 32 33 34 34 35 35 36 36 36 37 37 37 37 37 38 38 38 38
8 9 9 10 11 12 13 14 16 17 18 19 20 22 23 24 25 27 28 29 30 32 32 33 34 35 35 36 36 37 38 38 38 38 38 39 39 39 39 39 40 40 39
10 11 12 12 13 13 14 16 17 18 20 21 22 23 23 25 26 28 30 31 32 33 34 35 36 36 37 38 38 38 39 39 39 40 40 40 40 40 40 40 41 41 41
12 12 13 14 15 15 16 16 18 19 20 21 22 24 25 27 28 30 31 32 33 34 35 36 37 37 38 38 38 38 39 39 39 39 39 40 40 40 41 41 41 41 41
14 15 14 15 16 16 17 17 18 19 20 21 23 24 26 28 30 32 33 34 35 36 37 37 38 38 39 38 38 38 37 37 37 37 38 38 39 40 41 41 41 41 41
16 16 16 16 16 17 18 19 19 20 21 23 24 26 28 30 32 34 35 37 38 38 38 39 39 39 39 38 38 37 36 35 35 35 36 36 37 38 39 40 41 41 41
17 17 17 17 17 18 19 20 21 22 23 24 25 27 30 32 34 36 37 38 39 39 40 40 40 40 39 38 37 36 35 34 34 34 35 35 36 36 37 38 39 40 40
18 18 18 18 18 19 20 21 22 23 24 25 27 29 32 34 36 37 38 39 40 41 41 41 40 40 39 38 36 36 35 34 34 34 34 34 34 34 35 37 38 39 39
19 19 18 19 19 20 21 22 23 24 25 27 28 31 33 36 38 39 40 41 42 42 42 42 41 40 40 38 37 35 35 34 33 33 33 33 33 33 34 35 36 38 38
20 20 20 20 20 21 22 23 24 25 26 28 30 33 35 37 39 40 42 42 43 43 43 42 41 40 39 38 37 36 35 34 33 33 33 33 33 32 33 33 35 36 38
21 21 22 22 22 22 23 25 26 27 28 30 32 34 36 38 40 42 43 44 44 44 43 42 41 39 38 37 37 36 34 33 32 32 32 32 32 32 33 33 34 35 37
21 22 23 23 24 24 25 26 27 28 30 32 35 36 38 40 42 44 44 45 44 44 43 42 40 39 38 38 37 35 33 31 31 32 32 31 31 32 33 33 34 35 37
22 23 24 25 25 26 27 28 29 30 32 34 36 37 39 41 44 45 45 45 45 45 43 42 40 39 39 38 36 34 32 31 31 32 31 31 31 31 31 31 32 32 34
24 24 25 26 26 27 28 30 31 33 35 37 38 39 42 44 45 45 45 46 45 45 44 42 41 39 38 37 36 34 32 31 31 31 31 31 30 30 29 29 30 30 31
26 27 28 27 28 29 30 31 33 35 37 39 40 42 43 45 46 47 47 46 46 45 44 42 40 39 37 36 35 33 32 31 31 31 30 30 30 29 28 28 28 29 29
28 28 29 29 30 31 32 34 35 38 41 42 42 44 45 46 47 47 47 46 46 45 44 42 40 39 37 36 34 32 32 32 31 30 30 29 28 27 27 27 27 27 27
30 31 31 33 34 34 34 36 39 41 42 44 45 46 46 47 47 48 48 47 46 45 44 41 40 38 36 35 34 32 32 31 30 29 29 28 27 27 26 26 25 25 24
32 33 34 36 37 37 37 40 42 42 44 45 46 47 48 48 48 48 48 47 46 45 43 41 39 38 36 34 33 32 32 31 30 29 28 27 26 25 24 23 22 22 22
35 35 36 39 40 40 42 42 43 44 45 47 49 49 49 49 49 49 49 47 46 44 42 40 39 37 35 33 32 31 31 30 29 29 27 26 25 23 22 20 20 19 19
Wind_Direction
270 269 275 282 285 288 291 295 298 299 302 302 301 304 305 304 306 307 305 304 304 301 298 297 296 294 291 289 287 285 282 280 278 276 274 273 270 267 265 263 262 260 257
272 271 276 282 282 285 291 295 299 303 305 303 305 308 309 309 310 310 309 308 307 305 303 301 298 297 294 291 289 287 284 282 279 277 274 272 270 269 267 265 262 260 258
269 272 277 283 286 288 293 298 304 308 311 311 312 313 314 315 315 314 313 311 310 308 307 304 302 299 297 295 292 289 287 285 282 279 277 275 272 270 268 266 263 261 259
268 269 275 282 287 293 299 305 311 314 316 320 321 319 318 317 317 317 316 314 312 311 309 306 304 301 299 297 294 292 289 287 284 282 279 277 275 272 270 267 265 262 260
272 272 281 289 295 301 307 311 315 319 321 323 324 323 321 320 319 319 318 317 314 312 310 308 305 302 300 298 295 293 290 288 286 283 281 278 275 273 271 269 267 265 261
286 289 296 305 311 313 316 318 319 321 323 324 324 324 323 323 322 321 320 318 316 314 312 308 305 303 300 298 296 294 292 290 288 285 282 280 277 274 271 270 268 267 264
310 311 313 317 318 319 322 324 325 326 327 328 328 328 327 325 323 321 320 318 316 315 313 310 307 304 301 299 297 294 292 290 288 286 283 280 277 275 272 270 268 267 266
323 326 326 325 323 325 326 329 331 331 332 331 330 329 328 327 325 323 321 319 317 315 314 312 309 306 304 302 299 296 293 290 288 286 283 281 278 275 272 270 267 266 265
339 335 332 331 329 330 332 334 334 333 333 332 331 330 329 328 327 325 323 321 318 316 314 311 309 307 305 302 300 297 294 291 288 285 283 280 277 275 272 270 268 266 264
339 337 336 335 335 335 335 334 334 333 332 331 330 330 329 328 327 326 324 322 319 317 315 313 311 309 306 303 300 297 294 291 288 285 283 280 277 275 272 270 268 266 264
332 333 333 332 332 331 330 331 331 331 331 331 330 330 330 329 328 327 325 323 320 318 317 315 313 311 310 307 303 300 296 293 289 286 283 281 277 274 271 269 267 266 264
324 323 325 326 325 325 325 327 327 328 329 329 329 329 329 328 328 327 326 325 323 321 319 318 316 314 312 309 306 303 299 295 292 288 285 281 278 275 271 269 267 265 263
313 313 316 319 320 321 322 324 325 325 326 327 328 328 328 328 329 328 328 327 325 324 322 320 318 316 314 312 309 306 302 298 294 291 287 284 280 276 272 269 267 264 262
306 308 310 314 317 319 320 322 323 323 324 325 326 327 328 328 328 328 328 328 327 326 324 322 320 318 316 314 311 308 304 300 296 293 290 286 282 277 273 269 266 264 262
303 305 308 311 314 316 318 320 320 320 321 322 324 326 328 329 329 329 329 329 328 327 325 324 322 319 317 315 312 309 306 302 299 295 291 287 283 280 274 270 266 263 261
300 303 305 308 311 314 316 318 318 317 317 320 322 325 327 329 330 330 330 329 328 328 326 325 324 321 319 316 313 310 307 304 301 297 293 289 285 281 276 271 267 263 260
299 302 305 307 310 312 314 316 317 317 317 319 322 325 327 329 330 330 330 329 329 328 327 326 324 323 321 318 315 312 310 306 302 298 295 291 286 281 277 273 269 264 261
300 302 304 306 308 310 312 314 316 316 317 318 321 323 324 326 328 330 330 330 329 329 328 326 325 323 321 319 316 314 311 307 303 301 297 293 288 283 279 275 271 266 263
298 300 302 305 307 309 311 312 314 315 316 318 320 321 323 325 328 330 330 330 330 330 328 327 326 324 322 320 318 315 312 308 305 303 300 295 291 286 282 278 273 268 264
297 299 302 304 305 307 310 311 312 315 316 316 318 321 323 325 327 329 330 330 330 330 329 327 326 324 323 321 319 316 313 310 307 305 301 297 294 290 285 281 276 270 265
297 298 299 300 302 304 307 309 310 313 315 316 318 320 322 324 326 327 328 329 329 329 328 327 325 324 322 320 319 317 314 312 310 307 303 300 296 292 287 283 277 271 267
296 296 296 297 299 301 304 308 310 312 314 316 317 318 320 323 325 326 327 328 328 328 327 325 324 323 322 321 320 318 316 315 313 310 306 302 298 294 289 284 278 273 268
291 293 295 296 299 301 303 306 310 312 313 315 316 317 319 321 322 324 325 326 326 326 326 325 324 323 322 322 320 318 318 317 315 312 309 306 301 296 292 286 281 275 269
290 292 294 296 297 300 302 305 308 310 312 314 315 316 318 320 321 322 323 324 325 325 325 324 324 323 322 321 321 319 319 318 317 314 312 308 304 300 295 290 284 278 270
288 289 292 296 299 300 301 304 306 307 310 313 315 316 316 317 319 320 321 322 323 323 323 322 322 322 322 321 321 320 320 320 318 316 314 311 308 304 299 293 286 279 272
289 291 294 296 298 300 302 304 306 307 309 311 313 314 315 316 317 318 320 321 321 321 320 319 320 321 320 320 320 320 320 321 320 319 316 313 311 308 303 298 290 283 273